This is the latest recevied weather packets stored in our database for station/object DC9VQ-13. If no packets are shown the sender has not sent any weather packets the latest 10 day(s).
| Time | Temp. | Humidity | Pressure | Rain* | Wind** | Luminosity | Snow |
|---|---|---|---|---|---|---|---|
| 1777729856 | 26.11° C | 37% | 1018.5 hPa | 0 mm | - | - | - |
| 1777728652 | 25.56° C | 39% | 1018.7 hPa | 0 mm | - | - | - |
| 1777728050 | 25° C | 39% | 1018.8 hPa | 0 mm | - | - | - |
| 1777727448 | 25° C | 39% | 1019 hPa | 0 mm | - | - | - |
| 1777726848 | 24.44° C | 39% | 1019.2 hPa | 0 mm | - | - | - |
| 1777726244 | 24.44° C | 40% | 1019.3 hPa | 0 mm | - | - | - |
| 1777725642 | 23.89° C | 39% | 1019.3 hPa | 0 mm | - | - | - |
| 1777725041 | 23.89° C | 40% | 1019.4 hPa | 0 mm | - | - | - |
| 1777724440 | 23.33° C | 41% | 1019.6 hPa | 0 mm | - | - | - |
| 1777723837 | 23.33° C | 40% | 1019.7 hPa | 0 mm | - | - | - |
| 1777723236 | 23.33° C | 40% | 1019.9 hPa | 0 mm | - | - | - |
| 1777722631 | 22.78° C | 41% | 1020.1 hPa | 0 mm | - | - | - |
| 1777722031 | 22.78° C | 42% | 1020.4 hPa | 0 mm | - | - | - |
| 1777721428 | 22.78° C | 42% | 1020.5 hPa | 0 mm | - | - | - |
| 1777720826 | 22.22° C | 43% | 1020.6 hPa | 0 mm | - | - | - |
| 1777720224 | 22.22° C | 43% | 1020.7 hPa | 0 mm | - | - | - |
| 1777719622 | 22.22° C | 44% | 1020.8 hPa | 0 mm | - | - | - |
| 1777719020 | 21.67° C | 42% | 1020.9 hPa | 0 mm | - | - | - |
| 1777718419 | 21.67° C | 46% | 1021.1 hPa | 0 mm | - | - | - |
| 1777717816 | 21.11° C | 43% | 1021.2 hPa | 0 mm | - | - | - |
| 1777717215 | 21.11° C | 45% | 1021.3 hPa | 0 mm | - | - | - |
| 1777716614 | 20.56° C | 48% | 1021.4 hPa | 0 mm | - | - | - |
| 1777716011 | 20.56° C | 47% | 1021.4 hPa | 0 mm | - | - | - |
| 1777715410 | 20° C | 45% | 1021.6 hPa | 0 mm | - | - | - |
| 1777714807 | 20° C | 50% | 1021.8 hPa | 0 mm | - | - | - |
* Rain latest hour (hover to see other rain measurements)
** Current wind speed in m/s (hover to see current wind gust speed)